AO-07 1 07530U 74089B 21028.53085102 -.00000046 00000-0 -53581-5 0 9999 2 07530 101.8355 3.2875 0012041 291.9303 182.8694 12.53647116114190 UO-11 1 14781U 84021B 21028.48165635 .00000142 00000-0 23444-4 0 9995 2 14781 97.5900 35.2398 0008543 171.8535 188.2820 14.83241735965189 LO-19 1 20442U 90005G 21028.62896302 -.00000008 00000-0 13738-4 0 9990 2 20442 98.7232 342.9682 0011156 207.8362 152.2226 14.32974652620866 HUBBLE 1 20580U 90037B 21028.37329963 .00000646 00000-0 28237-4 0 9991 2 20580 28.4694 271.8853 0002628 357.4625 166.1342 15.09544764489913 MET-2/21 1 22782U 93055A 21028.54277372 .00000031 00000-0 15050-4 0 9992 2 22782 82.5471 54.9546 0021599 326.8632 144.2358 13.83831843384171 AO-27 1 22825U 93061C 21028.79991489 -.00000002 00000-0 17255-4 0 9994 2 22825 98.9240 42.9342 0009468 82.5036 277.7221 14.30104707426296 IO-26 1 22826U 93061D 21028.52352301 .00000010 00000-0 21828-4 0 9999 2 22826 98.9182 42.5733 0009942 72.0656 288.1608 14.30442372426222 FO-29 1 24278U 96046B 21028.47475179 -.00000045 00000-0 -11816-4 0 9997 2 24278 98.5832 114.9144 0350833 152.1124 209.9318 13.53102162207311 NOAA-15 1 25338U 98030A 21028.80845272 .00000034 00000-0 32842-4 0 9990 2 25338 98.6976 58.4740 0009823 332.3707 27.6950 14.26010607181346 GO-32 1 25397U 98043D 21028.41024251 -.00000012 00000-0 14213-4 0 9991 2 25397 98.7558 334.4702 0002216 109.9596 250.1821 14.23700090171568 ISS 1 25544U 98067A 21027.77992426 .00003336 00000-0 68893-4 0 9991 2 25544 51.6465 317.1909 0002399 302.6503 164.1536 15.48908950266831 NO-44 1 26931U 01043C 21028.42582623 -.00000001 00000-0 31438-4 0 9999 2 26931 67.0513 281.8170 0007410 271.0533 88.9719 14.30604189 9215 SO-50 1 27607U 02058C 21028.43038987 .00000059 00000-0 28773-4 0 9997 2 27607 64.5557 46.5053 0029445 82.6426 277.8021 14.75706409973897 CO-55 1 27844U 03031E 21028.76433705 .00000058 00000-0 45474-4 0 9991 2 27844 98.6817 39.0846 0010791 120.4909 239.7336 14.22284762912169 CO-57 1 27848U 03031J 21028.50501413 .00000049 00000-0 41818-4 0 9997 2 27848 98.6878 39.3975 0010548 133.0486 227.1576 14.21865149911929 RS-22 1 27939U 03042A 21028.75862345 .00000202 00000-0 44868-4 0 9990 2 27939 98.1172 167.0237 0012841 7.9876 352.1535 14.66938107927040 NOAA-18 1 28654U 05018A 21028.55489568 .00000092 00000-0 74164-4 0 9999 2 28654 99.0144 92.7453 0013505 319.4189 40.5975 14.12576715808693 CO-58 1 28895U 05043F 21028.85106061 .00000163 00000-0 40084-4 0 9994 2 28895 98.0367 165.3290 0015527 291.5587 68.3961 14.63858554813813 Falconsat-3 1 30776U 07006E 21028.40950327 .00005144 00000-0 12926-3 0 9996 2 30776 35.4340 279.3571 0001513 33.0837 326.9985 15.39417596771504 CO-65 1 32785U 08021C 21028.52440009 .00000349 00000-0 43025-4 0 9997 2 32785 97.5959 12.9336 0014468 105.3350 254.9467 14.88620232691352 AAUSAT2 1 32788U 08021F 21028.51395201 .00000542 00000-0 54048-4 0 9994 2 32788 97.4983 29.1128 0012338 26.4474 333.7375 14.95364661692943 DO-64 1 32789U 08021G 21028.53890580 .00001907 00000-0 12627-3 0 9999 2 32789 97.3931 69.2160 0010400 261.7352 98.2698 15.08433931695737 CO-66 1 32791U 08021J 21028.53529882 .00000524 00000-0 57904-4 0 9998 2 32791 97.5585 18.9768 0014707 74.2998 285.9842 14.91260027691927 RS-30 1 32953U 08025A 21028.75039556 .00000028 00000-0 12906-3 0 9991 2 32953 82.5054 137.8228 0018447 281.1191 78.7818 12.43099630575627 PRISM 1 33493U 09002B 21028.41349954 .00001528 00000-0 13669-3 0 9999 2 33493 98.1712 344.3885 0015678 35.5288 324.6973 14.97398652653366 NOAA-19 1 33591U 09005A 21028.78853444 -.00000000 00000-0 25275-4 0 9997 2 33591 99.1925 45.9660 0014283 160.8266 199.3445 14.12450280617203 TISAT-1 1 36799U 10035E 21028.45514553 .00000765 00000-0 82358-4 0 9996 2 36799 98.2025 213.6066 0011290 316.9308 43.1025 14.91584000572460 JUGNU 1 37839U 11058B 21028.33940032 .00000320 00000-0 29048-4 0 9994 2 37839 19.9629 358.9474 0018785 348.2207 162.9878 14.12701702480629 SRMSAT 1 37841U 11058D 21028.52822538 .00000280 00000-0 86257-5 0 9999 2 37841 19.9731 66.7812 0011764 195.6903 316.5842 14.10683609479936 AO-71 1 37854U 11061E 21028.54574641 .00002281 00000-0 11924-3 0 9998 2 37854 101.7115 242.3447 0155957 112.1634 249.6213 15.08106454505394 HRBE 1 37855U 11061F 21028.83605196 .00001896 00000-0 98848-4 0 9993 2 37855 101.7256 239.8329 0168492 125.7716 235.9295 15.07142297505617 HORYU-2 1 38340U 12025D 21028.42777335 .00000263 00000-0 46056-4 0 9995 2 38340 98.2520 93.0570 0012268 47.9848 312.2403 14.75967130457733 RS-40 1 38735U 12041C 21028.73642774 .00000021 00000-0 77522-4 0 9997 2 38735 82.4755 220.1848 0017854 31.8198 328.3956 12.42581737385832 BEESAT-3 1 39135U 13015F 21028.74969481 .00001492 00000-0 80640-4 0 9990 2 39135 64.8668 293.4974 0015334 205.2130 154.8250 15.18867391429816 BEESAT-2 1 39136U 13015G 21028.49229625 .00001926 00000-0 10244-3 0 9996 2 39136 64.8741 300.1529 0028652 262.3274 97.4599 15.18248723429260 ZACUBE-1 1 39417U 13066B 21028.50278823 .00000335 00000-0 48260-4 0 9993 2 39417 97.5805 20.1893 0057228 259.7884 99.6873 14.81417677388355 TRITON-1 1 39427U 13066M 21028.80911480 .00000302 00000-0 55430-4 0 9991 2 39427 97.7583 343.6196 0114917 77.5334 283.8702 14.68139888384922 GOMX-1 1 39430U 13066Q 21028.74999600 .00000150 00000-0 36206-4 0 9999 2 39430 97.8091 319.8835 0150235 194.4294 165.2604 14.59526198382660 LO-74 1 39440U 13066AA 21028.48052898 .00000431 00000-0 66566-4 0 9994 2 39440 97.6585 4.8870 0079281 330.6960 28.9815 14.76151034385778 AO-73 1 39444U 13066AE 21028.50407603 .00000424 00000-0 58143-4 0 9993 2 39444 97.5724 22.5206 0056353 250.6447 108.8669 14.82303543386702 SPROUT 1 39770U 14029E 21028.76809635 .00000931 00000-0 10708-3 0 9991 2 39770 97.9068 140.3040 0008015 312.6645 47.3890 14.88148272362568 DUCHIFAT-1 1 40021U 14033M 21028.56685653 .00000808 00000-0 87182-4 0 9991 2 40021 97.9613 327.4000 0011396 265.9710 94.0206 14.91160696359438 NANOSATCBR1 1 40024U 14033Q 21028.38198495 .00000511 00000-0 58553-4 0 9998 2 40024 97.9428 322.8150 0010730 272.4153 87.5836 14.90288219358734 DTUSAT-2 1 40030U 14033W 21028.23602507 .00000399 00000-0 48561-4 0 9995 2 40030 97.9121 315.5688 0010451 277.7469 82.2561 14.88878183358452 EO-80 1 40032U 14033Y 21028.73271434 .00000443 00000-0 53299-4 0 9997 2 40032 97.9129 316.0696 0010413 276.9983 83.0049 14.88832370359029 ANTELSAT 1 40034U 14033AA 21028.52452809 .00000333 00000-0 56292-4 0 9997 2 40034 97.6896 239.1205 0058410 352.5671 7.4666 14.74389066355041 VELOX-1 1 40057U 14034E 21028.88053532 .00000396 00000-0 62445-4 0 9998 2 40057 98.3057 178.4729 0011808 140.3292 219.8784 14.78052065354927 DAURIA DX 1 1 40071U 14037C 21028.84425655 .00000154 00000-0 27186-4 0 9997 2 40071 98.4579 225.7787 0009426 130.7230 229.4804 14.81446223354625 HODOYOSHI-1 1 40299U 14070B 21028.83971244 .00001081 00000-0 46810-4 0 9990 2 40299 97.3027 106.1210 0014399 117.0584 20.2980 15.24442569346148 CHUBUSAT-1 1 40300U 14070C 21028.81281804 .00001196 00000-0 53648-4 0 9991 2 40300 97.2629 96.9365 0020376 136.0475 291.1098 15.22911657345805 QSAT-EOS 1 40301U 14070D 21028.83414726 .00003278 00000-0 12171-3 0 9993 2 40301 97.2711 103.9647 0026149 108.1033 28.7024 15.27953312346335 FIREBIRD FU3 1 40377U 15003B 21028.57662017 .00003676 00000-0 13960-3 0 9991 2 40377 99.0833 140.8260 0119384 281.5273 77.2573 15.21312985331511 FIREBIRD FU4 1 40378U 15003C 21028.75463377 .00003278 00000-0 12479-3 0 9992 2 40378 99.0839 141.1598 0119532 280.7689 78.0104 15.21352809331555 GRIFEX 1 40379U 15003D 21028.23735050 .00002168 00000-0 92267-4 0 9997 2 40379 99.0840 131.0043 0129562 312.2713 46.7586 15.17295584330910 NO-84 1 40654U 15025D 21027.31974838 .00033894 00000-0 30492-3 0 1706 2 40654 54.9842 343.8098 0099613 53.8877 307.1410 15.61693950203909 DEORBITSAIL 1 40719U 15032E 21028.40303375 .00000549 00000-0 84469-4 0 9993 2 40719 97.8463 277.1766 0015643 196.5878 163.4823 14.77219343299300 NUDT-PHONESAT 1 40900U 15049B 21028.83246442 .00004043 00000-0 16284-3 0 9993 2 40900 97.4258 43.9253 0010404 270.9262 173.8335 15.25391353297536 XW-2A 1 40903U 15049E 21028.84689608 .00004130 00000-0 91379-4 0 9998 2 40903 97.2586 83.6872 0013436 156.4889 320.1594 15.44294181301240 XW-2C 1 40906U 15049H 21028.87596245 .00001037 00000-0 56697-4 0 9995 2 40906 97.4829 33.0243 0013399 317.0695 92.5362 15.16451820296413 XW-2D 1 40907U 15049J 21028.83830749 .00001202 00000-0 64655-4 0 9999 2 40907 97.4815 32.7390 0012778 313.8411 129.7642 15.16734735296433 LILACSAT-2 1 40908U 15049K 21028.86129503 .00000897 00000-0 52548-4 0 9999 2 40908 97.4999 30.8051 0014802 327.6077 116.7052 15.14270567296102 XW-2E 1 40909U 15049L 21028.88091547 .00001839 00000-0 90927-4 0 9998 2 40909 97.4664 36.6059 0011759 300.8707 143.4667 15.19054609296746 XW-2F 1 40910U 15049M 21028.71273816 .00001752 00000-0 87977-4 0 9998 2 40910 97.4716 35.5151 0012894 300.3406 176.1763 15.18558623296518 XW-2B 1 40911U 15049N 21028.70662135 .00001056 00000-0 57324-4 0 9994 2 40911 97.4823 33.3044 0012601 315.3911 155.3148 15.16653993296305 DCBB 1 40912U 15049P 21028.74254116 .00002077 00000-0 96565-4 0 9999 2 40912 97.4468 39.8673 0012905 272.2916 203.0951 15.21033740296955 TW-1C 1 40926U 15051B 21028.83046922 .00233130 22333-4 68160-3 0 9993 2 40926 97.0449 90.2723 0002014 256.0594 215.0663 15.92795009302473 TW-1A 1 40928U 15051D 21028.77875586 .00005825 00000-0 12774-3 0 9995 2 40928 97.0908 57.0747 0011746 84.6913 25.5840 15.44378854300127 IO-86 1 40931U 15052B 21028.73492354 .00000718 00000-0 10840-4 0 9993 2 40931 5.9991 168.7883 0013537 229.3940 130.4975 14.76660517288618 LQSat 1 40958U 15057A 21028.69250976 .00000029 00000-0 12053-4 0 9997 2 40958 97.8248 90.3640 0018972 142.4384 217.8156 14.73153038285663 ATHENOXAT-1 1 41168U 15077C 21028.85412968 .00002744 00000-0 10583-3 0 9993 2 41168 14.9873 206.9290 0011108 25.1642 12.2340 15.15117597283572 ChubuSat-2 1 41338U 16012B 21028.56950688 .00000463 00000-0 29130-4 0 9991 2 41338 31.0047 355.3425 0013766 187.5486 172.4943 15.00430832271573 ChubuSat-3 1 41339U 16012C 21028.60661224 .00000387 00000-0 23115-4 0 9994 2 41339 31.0134 352.4818 0013303 196.0961 163.9260 15.00585681271575 Horyu-4 1 41340U 16012D 21028.24695294 .00000755 00000-0 49919-4 0 9999 2 41340 31.0064 340.0238 0013962 220.4273 139.5326 15.01725341271692 OUFTI-1 1 41458U 16025C 21028.79826440 .00003858 00000-0 19045-3 0 9995 2 41458 98.1234 157.7286 0161008 170.1449 190.3001 15.07873332261427 e-st@r-II 1 41459U 16025D 21028.78112126 .00003886 00000-0 19344-3 0 9997 2 41459 98.1213 156.9238 0162945 172.7222 187.6444 15.07349601261372 AAUSAT4 1 41460U 16025E 21028.81410411 .00007369 00000-0 34884-3 0 9997 2 41460 98.1208 160.1696 0150598 158.7286 202.0301 15.10108203261636 LO-87 1 41557U 16033B 21028.89112630 .00002433 00000-0 89385-4 0 9997 2 41557 97.3972 123.6886 0013617 17.0291 119.4683 15.28819547260205 NuSat2 1 41558U 16033C 21028.88571806 .00002821 00000-0 96933-4 0 9999 2 41558 97.4052 126.8807 0012381 12.8864 121.3085 15.30890922260364 Lapan A3 1 41603U 16040E 21028.89532764 .00000182 00000-0 11525-4 0 9991 2 41603 97.2789 80.9602 0014617 127.5272 318.0883 15.19951031255387 Swayam 1 41607U 16040J 21028.12463979 .00002936 00000-0 11970-3 0 9994 2 41607 97.2890 87.9151 0014457 112.1718 248.1056 15.25130206255652 Pratham 1 41783U 16059A 21028.40662711 .00000094 00000-0 27263-4 0 9991 2 41783 97.9864 83.1573 0032757 329.5378 30.3921 14.63108125231775 AlSat 1N 1 41789U 16059G 21028.70744951 .00000096 00000-0 27071-4 0 9996 2 41789 97.9914 86.8050 0027180 314.4986 45.3991 14.64383526231997 ScatSat 1 41790U 16059H 21028.84324335 .00000004 00000-0 12463-4 0 9991 2 41790 98.3887 71.3407 0004443 319.3787 40.7065 14.50804808229903 TY-1 1 41844U 16066D 21028.87713550 .00001621 00000-0 67002-4 0 9998 2 41844 97.4011 40.5559 0013023 270.5024 161.9470 15.25378024234624 Pegasus-1 1 41846U 16066F 21028.40833431 .00000371 00000-0 67532-4 0 9999 2 41846 98.6319 86.4687 0365164 283.0185 73.0478 14.37927625221293 CAS-2T 1 41847U 16066G 21028.42439303 .00000153 00000-0 34479-4 0 9994 2 41847 98.6233 86.8317 0364295 278.2734 77.7305 14.38140202221753 EO-88 1 42017U 17008BX 21028.20422005 .00003273 00000-0 12465-3 0 9994 2 42017 97.3347 98.2613 0004666 236.9493 123.1298 15.27424680219845 CAS-4B 1 42759U 17034B 21028.87442014 .00000339 00000-0 33846-4 0 9998 2 42759 43.0170 228.3462 0010254 1.6536 130.1274 15.10054188200041 CAS-4A 1 42761U 17034D 21028.73413050 .00000356 00000-0 34863-4 0 9993 2 42761 43.0171 228.2676 0010542 2.3867 93.5210 15.10134901200028 UCLSat 1 42765U 17036A 21028.39308518 .00002509 00000-0 10553-3 0 9994 2 42765 97.2714 82.2743 0009781 319.4604 40.5904 15.24265117200833 NIUSat 1 42766U 17036B 21028.39030451 .00001758 00000-0 79161-4 0 9999 2 42766 97.2713 79.1064 0013875 313.5062 46.5020 15.22281083199904 LituanicaSAT 2 1 42768U 17036D 21028.39135675 .00004224 00000-0 17029-3 0 9990 2 42768 97.2783 82.6803 0012624 305.1588 54.8467 15.25292400200115 Aalto 1 1 42775U 17036L 21028.75635813 .00001360 00000-0 61892-4 0 9993 2 42775 97.2686 79.7663 0012318 311.8597 48.1588 15.22304760199948 URSA MAIOR 1 42776U 17036M 21028.38709109 .00001593 00000-0 71495-4 0 9991 2 42776 97.2700 79.7989 0012120 312.8352 47.1866 15.22536627199901 Max Valier Sat 1 42778U 17036P 21028.39410960 .00001631 00000-0 71838-4 0 9992 2 42778 97.2763 81.4748 0010695 315.8482 44.1901 15.23170759199961 Pegasus 1 42784U 17036V 21028.13905958 .00002018 00000-0 86346-4 0 9997 2 42784 97.2719 81.6211 0010455 321.6304 38.4189 15.23889806199984 NUDATSat 1 42787U 17036Y 21028.57263728 .00002604 00000-0 10536-3 0 9998 2 42787 97.2767 84.0158 0009683 314.4415 45.6033 15.25541625200001 SUCHAI 1 1 42788U 17036Z 21028.79642371 .00002421 00000-0 10101-3 0 9993 2 42788 97.2727 83.0764 0009787 316.5731 43.4735 15.24573024200203 SKCUBE 1 42789U 17036AA 21028.40980374 .00002525 00000-0 10591-3 0 9998 2 42789 97.2722 82.4755 0009747 318.8592 41.1910 15.24356225200053 VZLUSAT 1 1 42790U 17036AB 21028.17111845 .00003385 00000-0 13623-3 0 9997 2 42790 97.2756 83.6144 0009098 315.9527 44.0985 15.25519887200096 VENTA 1 1 42791U 17036AC 21028.38733130 .00002448 00000-0 10284-3 0 9997 2 42791 97.2719 82.4811 0009444 319.7393 40.3144 15.24330078200045 Robusta 1B 1 42792U 17036AD 21028.79335242 .00002320 00000-0 96937-4 0 9994 2 42792 97.2724 83.1746 0009298 317.6728 42.3791 15.24572641200148 D-SAT 1 42794U 17036AF 21028.34581823 .00000756 00000-0 70551-4 0 9990 2 42794 97.4734 55.5967 0125135 334.7556 24.7580 14.91438129196171 TechnoSat 1 42829U 17042E 21028.68587396 .00000210 00000-0 26398-4 0 9999 2 42829 97.4897 265.4625 0012729 252.2653 107.7178 14.91209709192855 QIKCOM-1 1 42983U 98067NF 21028.02779416 .00008169 00000-0 89312-4 0 9996 2 42983 51.6359 251.5365 0003845 170.9544 189.1521 15.64315715185407 AO-91 1 43017U 17073E 21028.46419589 .00001334 00000-0 10746-3 0 9994 2 43017 97.7171 297.9434 0256787 37.2380 324.6334 14.79279609172420 EcAMSat 1 43019U 98067NG 21028.71460603 .00018304 00000-0 13958-3 0 9992 2 43019 51.6382 223.9589 0003988 176.0025 184.1006 15.72287481268158 PICSAT 1 43132U 18004X 21028.47913709 .00002805 00000-0 11441-3 0 9998 2 43132 97.4246 104.2432 0008781 352.0745 8.0352 15.25240481169346 AO-92 1 43137U 18004AC 21028.24392537 .00001962 00000-0 82064-4 0 9991 2 43137 97.4226 103.6538 0008619 355.9513 4.1653 15.24754777169296 TianYi 2 1 43155U 18008A 21028.84999405 .00001574 00000-0 94787-4 0 9992 2 43155 97.4225 97.9160 0019054 91.3790 20.0362 15.12089608166971 Zhou Enlai 1 43156U 18008B 21028.87978609 .00001257 00000-0 77435-4 0 9998 2 43156 97.4261 97.7807 0016247 90.5460 22.4109 15.11662902166927 TianYi 6 1 43158U 18008D 21028.82860855 .00001124 00000-0 70592-4 0 9998 2 43158 97.4217 96.4991 0015273 88.1766 335.8153 15.11142670166857 S-Net D 1 43186U 18014G 21028.65796472 -.00000177 00000-0 -10406-4 0 9997 2 43186 97.6863 298.6952 0010615 183.8503 176.2639 14.96956152163388 S-Net B 1 43187U 18014H 21028.45730643 -.00000151 00000-0 -80778-5 0 9996 2 43187 97.6861 298.4693 0010588 184.3521 175.7611 14.96956023163350 S-Net A 1 43188U 18014J 21028.45724108 -.00000157 00000-0 -85839-5 0 9995 2 43188 97.6864 298.5079 0010580 184.4846 175.6282 14.96954727163358 S-Net C 1 43189U 18014K 21028.65826317 -.00000165 00000-0 -92963-5 0 9998 2 43189 97.6860 298.6606 0010611 183.7824 176.3319 14.96954525161932 FMN 1 1 43192U 18015A 21028.88029067 .00004054 00000-0 15560-3 0 9990 2 43192 97.4670 163.8700 0015688 20.4553 78.1764 15.26942122166286 Shaonian Xing 1 43199U 18015H 21028.74150742 .00002839 00000-0 11041-3 0 9996 2 43199 97.4465 161.3693 0016659 30.6758 75.6331 15.26748198166322 SurfSat 1 43614U 18070B 21028.84160481 .00004661 00000-0 11362-3 0 9992 2 43614 93.0238 248.0087 0014418 174.6926 185.4484 15.40828573133168 CP-7 DAVE 1 43615U 18070C 21028.76998090 .00004327 00000-0 10631-3 0 9996 2 43615 93.0241 247.9521 0014624 174.8444 185.2964 15.40589471133140 ELFIN-B 1 43616U 18070D 21028.69634907 .00006985 00000-0 15969-3 0 9994 2 43616 93.0199 247.9729 0014592 174.9666 185.1739 15.42733732133214 ELFIN-A 1 43617U 18070E 21028.10874028 .00008119 00000-0 18356-3 0 9995 2 43617 93.0255 248.4417 0013977 173.4539 186.6902 15.43069780133132 STARS-Me Mother 1 43640U 98067PQ 21028.58561501 .00041292 00000-0 25400-3 0 9993 2 43640 51.6292 239.1824 0004510 170.7412 189.3672 15.76775095132098 CubeBel 1 1 43666U 18083E 21028.86480135 .00002058 00000-0 10189-3 0 9990 2 43666 97.4711 58.9211 0013170 298.7445 146.9959 15.18861417124825 Changshagaoxin 1 43669U 18083H 21028.88187225 .00001275 00000-0 66461-4 0 9994 2 43669 97.4603 56.4396 0009160 293.9929 168.1207 15.17756571124716 Ten-Koh 1 43677U 18084G 21028.61130177 .00000334 00000-0 40123-4 0 9991 2 43677 97.9028 151.4677 0017076 132.7956 227.4701 14.90392230122471 PO-101 1 43678U 18084H 21028.66385747 .00000154 00000-0 21032-4 0 9990 2 43678 97.9051 153.4069 0010773 145.7056 214.4859 14.91703010122593 IRVINE 01 1 43693U 18088D 21028.45844025 .00005280 00000-0 21325-3 0 9996 2 43693 85.0349 287.9255 0016687 174.4191 185.7242 15.24380038123109 QO-100 1 43700U 18090A 21028.52466128 .00000151 00000-0 00000-0 0 9996 2 43700 0.0169 83.9341 0002295 263.3118 355.4365 1.00272146 7968 Reaktor Hello World 1 43743U 18096AA 21028.22134089 .00002594 00000-0 96736-4 0 9992 2 43743 97.4005 106.7783 0018797 56.7563 303.5474 15.28182023120713 MinXSS-2 1 43758U 18099A 21028.44049190 .00000186 00000-0 21749-4 0 9990 2 43758 97.6839 102.4444 0016175 152.8243 207.3828 14.95891815117588 AO-95 1 43770U 18099N 21028.45368293 .00000300 00000-0 32464-4 0 9997 2 43770 97.6822 101.6328 0015089 160.9054 199.2736 14.95179388117535 RANGE-B 1 43772U 18099Q 21028.44139530 .00000343 00000-0 36110-4 0 9997 2 43772 97.6903 102.4106 0014910 148.3594 211.8527 14.95438198117537 RANGE-A 1 43773U 18099R 21028.45073640 .00000113 00000-0 15434-4 0 9999 2 43773 97.6761 101.0859 0014332 148.1852 212.0237 14.95109082117520 MOVE-II 1 43780U 18099Y 21028.46786391 .00001115 00000-0 10518-3 0 9992 2 43780 97.6834 102.0339 0014229 157.8760 202.3078 14.95700042117543 SNUSat 2 1 43782U 18099AA 21028.44256335 .00000023 00000-0 72286-5 0 9991 2 43782 97.6822 101.9142 0013516 147.0031 213.2036 14.95434725117549 SnugLite 1 43784U 18099AC 21028.19449199 .00000543 00000-0 54043-4 0 9994 2 43784 97.6784 101.4350 0015780 156.1911 204.0043 14.95543972117526 ITASat 1 1 43786U 18099AE 21028.46820409 .00000673 00000-0 65789-4 0 9996 2 43786 97.6839 102.2273 0015941 154.4738 205.7274 14.95492477117560 EAGLET 1 1 43790U 18099AJ 21028.46999441 .00000674 00000-0 65350-4 0 9999 2 43790 97.6827 102.5828 0014208 157.8335 202.3504 14.95870608117280 ESEO 1 43792U 18099AL 21028.43508365 -.00000080 00000-0 -20032-5 0 9991 2 43792 97.6803 102.2437 0013873 154.2315 205.9600 14.95683269117332 CSIM 1 43793U 18099AM 21028.46446415 .00000896 00000-0 84113-4 0 9994 2 43793 97.6812 102.4543 0013917 152.5555 207.6405 14.96355418117334 Astrocast 0.1 1 43798U 18099AS 21028.43634434 .00000130 00000-0 16677-4 0 9997 2 43798 97.6836 102.7003 0013383 137.7099 222.5156 14.96023718117585 JO-97 1 43803U 18099AX 21028.45371338 .00000312 00000-0 33113-4 0 9993 2 43803 97.6800 101.9849 0015782 154.8541 205.3451 14.95708762117562 Suomi 100 1 43804U 18099AY 21028.45684425 .00000380 00000-0 39242-4 0 9992 2 43804 97.6797 101.9648 0015876 154.9918 205.2076 14.95687175117575 Al Farabi 2 1 43805U 18099AZ 21028.87788216 .00000735 00000-0 70773-4 0 9990 2 43805 97.6808 102.5365 0015935 152.7917 207.4144 14.95861951117647 PWSat 2 1 43814U 18099BJ 21028.52120941 .00372925 00000-0 66206-2 0 9994 2 43814 97.7849 123.4260 0007411 231.7745 128.2838 15.48815781117960 CHOMPTT 1 43855U 18104G 21028.70598330 .00001878 00000-0 76725-4 0 9992 2 43855 85.0362 26.0992 0015291 307.1087 52.8758 15.23538994117815 ISAT 1 43879U 18111D 21028.85497872 .00000262 00000-0 28134-4 0 9998 2 43879 97.6941 298.5222 0011992 204.4492 155.6151 14.96468915112175 UWE-4 1 43880U 18111E 21028.46419077 .00000257 00000-0 27583-4 0 9999 2 43880 97.6952 298.5307 0011489 208.1946 151.8655 14.96706584114142 Sparrow 1 43881U 18111F 21028.50669912 .00000697 00000-0 65995-4 0 9997 2 43881 97.6970 298.6786 0011467 203.7832 156.2861 14.96762476114157 Lume 1 1 43908U 18111AJ 21028.45969710 .00002139 00000-0 86121-4 0 9997 2 43908 97.2483 287.5626 0022465 68.7050 291.6584 15.25706256116327 FO-98 1 43933U 19003B 21028.56202392 .00006000 00000-0 25136-3 0 9993 2 43933 97.2018 75.3861 0018183 164.0799 196.1014 15.23738852112783 FO-99 1 43937U 19003F 21028.40348317 .00002555 00000-0 10393-3 0 9998 2 43937 97.1972 77.0922 0024615 145.6316 214.6521 15.25135436112914 Delphini 1 1 44030U 98067PW 21028.76302071 .00130494 00000-0 45604-3 0 9993 2 44030 51.6262 238.7578 0005336 207.3425 152.7300 15.88378129113987 MYSat 1 1 44045U 18092F 21028.36132271 .00005461 00000-0 15176-3 0 9994 2 44045 51.6388 29.0466 0011481 58.8235 301.3873 15.38442363109883 AstroCast 0.2 1 44083U 19018F 21028.76041544 .00001426 00000-0 65214-4 0 9997 2 44083 97.3932 92.3612 0014665 101.5527 258.7356 15.22063422101645 AISTechSat 3 1 44103U 19018AB 21028.74816267 .00001641 00000-0 71190-4 0 9999 2 44103 97.3805 92.6616 0014834 113.4346 34.7179 15.23672380101738 AISat 1 1 44104U 19018AC 21028.48651086 .00002164 00000-0 69827-4 0 9992 2 44104 97.4409 105.3252 0058581 132.3121 228.3106 15.31622044102245 Raavana-1 1 44329U 98067QE 21028.10289702 .00032382 00000-0 31578-3 0 9999 2 44329 51.6374 282.7980 0006403 125.7581 234.4011 15.65891054 92097 Uguisu 1 44330U 98067QF 21028.06966681 .00030553 00000-0 30085-3 0 9994 2 44330 51.6348 283.2675 0006412 125.0277 235.1321 15.65678840 92067 NepaliSat-1 1 44331U 98067QG 21028.41335323 .00032156 00000-0 31362-3 0 9997 2 44331 51.6346 281.0638 0006383 128.9262 231.2304 15.65891660 92137 Prox-1 1 44339U 19036A 21028.58118289 .00001090 00000-0 20748-3 0 9991 2 44339 23.9995 134.9761 0011143 88.6973 271.4795 14.53343636 84841 Oculus-ASR 1 44348U 19036K 21028.55774695 .00011777 00000-0 16474-3 0 9991 2 44348 28.5162 341.8156 0346479 197.5030 161.3352 15.07844275 87745 Armadillo 1 44352U 19036P 21028.86376423 .00015820 00000-0 21367-3 0 9997 2 44352 28.5321 327.3170 0324506 219.7334 137.9065 15.13098860 87864 NO-104 1 44354U 19036R 21028.18844936 .00012238 00000-0 16771-3 0 9996 2 44354 28.5316 339.2713 0342352 199.9819 158.7070 15.09122641 87734 NO-103 1 44355U 19036S 21028.10122649 .00024652 00000-0 30341-3 0 9991 2 44355 28.5307 313.9641 0300089 241.1794 115.8361 15.20016707 87989 CP9 1 44360U 19036X 21028.37323166 .00050838 -58642-5 46266-3 0 9992 2 44360 28.5096 274.4408 0255588 307.0613 50.6866 15.34399684 88279 Move-IIb 1 44398U 19038N 21028.86523739 .00002300 00000-0 13270-3 0 9996 2 44398 97.5634 353.7077 0026363 71.4735 288.9363 15.13082594 86655 SONATE 1 44400U 19038Q 21028.84787135 .00000654 00000-0 41320-4 0 9998 2 44400 97.5694 353.6540 0026453 71.4103 289.0008 15.12287996 86636 BeeSat 9 1 44412U 19038AC 21028.40150756 .00001657 00000-0 97437-4 0 9990 2 44412 97.5699 353.3924 0024028 77.3687 283.0228 15.12846294 86275 JAISAT-1 1 44419U 19038F 21028.48216185 .00001704 00000-0 98800-4 0 9992 2 44419 97.5700 353.9090 0022858 75.8340 284.5428 15.13330393 86629 LightSail-2 1 44420U 19036AC 21028.61146161 .00007067 00000-0 14479-2 0 9999 2 44420 24.0066 122.4312 0018428 67.8478 292.3969 14.58330631 83142 Taurus 1 1 44530U 19059C 21028.73985143 .00000571 00000-0 17333-3 0 9996 2 44530 98.5570 117.9120 0014470 197.9922 162.0752 14.45870262 72896 Duchifat 3 1 44854U 19089C 21028.74843634 .00000463 00000-0 43592-4 0 9994 2 44854 36.9646 206.7043 0006867 78.2619 281.8888 14.99306270 62128 OPS-SAT 1 44878U 19092F 21028.48697919 .00001686 00000-0 90905-4 0 9996 2 44878 97.4694 214.0803 0012620 299.2997 60.6974 15.16083963 61627 TO-108 1 44881U 19093C 21028.72046662 -.00000260 00000-0 -26332-4 0 9993 2 44881 97.9380 108.9930 0015557 33.0294 327.1871 14.81419480 60046 FloripaSat 1 1 44885U 19093G 21028.68258693 .00000323 00000-0 47197-4 0 9991 2 44885 97.9394 109.3458 0015442 40.6274 319.6095 14.82187020 60069 RS-44 1 44909U 19096E 21028.52471697 .00000009 00000-0 -16209-4 0 9997 2 44909 82.5199 205.7649 0218209 60.4268 301.8387 12.79708443 50979 SwampSat-2 1 45115U 19071E 21028.57749890 .00027590 00000-0 61750-3 0 9991 2 45115 51.6398 346.9602 0010270 142.2951 217.8756 15.43203486 55770 HO-107 1 45119U 19071J 21028.60086289 .00002610 00000-0 87276-4 0 9993 2 45119 51.6432 354.4985 0012104 141.9873 218.1965 15.34787715 55686 Phoenix 1 45258U 98067RB 21028.73923218 .00009405 00000-0 15051-3 0 9995 2 45258 51.6413 306.5686 0006747 97.1775 262.9983 15.53862381 53469 AztechSat-1 1 45261U 98067RE 21028.26181997 .00024731 00000-0 32884-3 0 9999 2 45261 51.6395 304.8921 0008151 112.4319 247.7537 15.58001766 53475 QARMAN 1 45263U 98067RG 21028.77243979 .00017286 00000-0 24793-3 0 9993 2 45263 51.6406 304.5502 0007795 110.6429 249.5399 15.56217229 53553 Quetzal 1 1 45598U 98067RL 21028.15820494 .00016140 00000-0 24357-3 0 9993 2 45598 51.6419 310.2062 0002638 165.3406 194.7662 15.54907444 42696 BY70-2 1 45857U 20042B 21028.73429963 .00001050 00000-0 15756-3 0 9996 2 45857 97.9967 105.9098 0009612 305.3052 54.7267 14.76648721 30927 UPMSat 2 1 46276U 20061E 21028.25672461 .00000918 00000-0 50842-4 0 9991 2 46276 97.4484 104.7696 0002897 109.6942 250.4604 15.16252934 22297 AmicalSat 1 46287U 20061R 21028.31837195 .00000892 00000-0 58430-4 0 9999 2 46287 97.5035 104.5800 0002263 184.5734 175.5475 15.10200878 22191 SALSAT 1 46495U 20068K 21028.55702033 .00000754 00000-0 59950-4 0 9990 2 46495 97.6825 326.9981 0017140 180.9468 179.1727 15.03340520 18314 BY70-3 1 46839U 20079N 21028.91410279 .00003635 00000-0 11740-3 0 9997 2 46839 97.2568 105.5358 0006958 0.7028 110.1185 15.32719307 12829 Bobcat-1 1 46921U 98067RR 21028.50303703 .00009907 00000-0 17081-3 0 9991 2 46921 51.6440 312.5059 0001077 270.0391 90.0475 15.51703786 13110 SPOC 1 46922U 98067RS 21028.16689903 .00013398 00000-0 22393-3 0 9994 2 46922 51.6444 314.0135 0000588 267.5437 92.5486 15.52237632 13027 Neutron-1 1 46923U 98067RT 21028.50807884 .00010027 00000-0 17342-3 0 9997 2 46923 51.6439 312.5384 0000985 299.6118 60.4773 15.51600074 13143 CAPE 3 1 47309U 21002A 21028.58087949 .00001877 00000-0 97672-4 0 9999 2 47309 60.6851 94.6672 0017495 296.6373 63.2922 15.20284710 1619 OBJECT B 1 47310U 21002B 21028.51281180 .00002854 00000-0 14088-3 0 9992 2 47310 60.6851 94.9029 0015198 297.4984 62.4558 15.20622083 1597 OBJECT C 1 47311U 21002C 21028.50864247 .00001661 00000-0 85701-4 0 9999 2 47311 60.6898 94.8875 0012798 289.1362 70.8341 15.21206341 1597 OBJECT D 1 47312U 21002D 21028.50828858 .00006937 00000-0 31863-3 0 9998 2 47312 60.6884 94.8839 0012872 290.6430 69.3279 15.21309565 1594 OBJECT E 1 47313U 21002E 21027.45385742 .00002545 00000-0 12310-3 0 9999 2 47313 60.6886 98.7989 0015481 275.8152 84.1261 15.21709263 1439 MiTEE 1 1 47314U 21002F 21028.63230259 .00002644 00000-0 12526-3 0 9992 2 47314 60.6885 94.3542 0013968 266.3966 93.5533 15.22317797 1616 OBJECT G 1 47315U 21002G 21028.49845205 .00001717 00000-0 84685-4 0 9996 2 47315 60.6871 94.8337 0011919 260.1935 99.7822 15.22663567 1596 OBJECT J 1 47317U 21002J 21019.43891341 -.00000243 00000-0 12602-5 0 9999 2 47317 60.6849 128.8110 0017380 287.3695 72.5476 15.20319036 198 OBJECT K 1 47318U 21002K 21028.51436359 .00001758 00000-0 91992-4 0 9992 2 47318 60.6886 94.9142 0016953 294.0093 65.9220 15.20390036 1575 ExoCube 2 1 47319U 21002L 21028.51112961 .00001469 00000-0 77949-4 0 9998 2 47319 60.6878 94.8989 0014017 293.7176 66.2441 15.20848800 1545 RadFxSat-2 1 47320U 21002M 21028.50910876 .00001945 00000-0 98469-4 0 9999 2 47320 60.6883 94.8894 0013353 289.0055 70.9586 15.21142273 1627 OBJECT N 1 47345U 21002N 21028.63656080 -.00000273 00000-0 00000 0 0 9997 2 47345 60.6869 94.3716 0014798 274.0402 85.9085 15.21706904 1346 /EX